{"data":{"norad_id":62432,"epoch":"2026-09-21T21:28:51.258144Z","epoch_age_seconds":54145,"freshness":"FRESH","line1":"1 62432U 24251A   26264.89503771  .00008945  00000+0  27560-3 0  9999","line2":"2 62432  53.1575 139.3185 0001211  90.3255 269.7886 15.34395813 98054","mean_motion":15.34395813,"eccentricity":0.0001211,"inclination_deg":53.1575,"raan_deg":139.3185,"arg_perigee_deg":90.3255,"mean_anomaly_deg":269.7886,"bstar":0.0002756,"rev_number":9805,"period_min":93.84801416947,"perigee_km":461.88725762163,"apogee_km":463.54411214191,"semimajor_km":6840.8526848818,"source":"CELESTRAK","updated_at":"2026-09-22T09:00:49.579665Z"}}